User: anonymous   Login
Location: SAPM � Hemmingford
(45.0500°N, 73.5833°W)
Time: 07:03:51
(UTC-04:00)
Language:

Iridium 75 - Orbit

View from above orbital plane
View from above orbital plane
View from above satellite
View from above satellite

Ground track
Ground track

The orbit data is extracted from the following two-line orbital elements,

1 25346U 98032E   17290.29587030  .00000173  00000-0  54835-4 0  9995
2 25346  86.4005 173.1166 0002037  81.7384 278.4043 14.34217938 17179
Epoch (UTC): 17 October 2017 07:06:03
Eccentricity: 0.0002037
inclination: 86.4005°
perigee height: 776 km
apogee height: 779 km
right ascension of ascending node: 173.1166°
argument of perigee: 81.7384°
revolutions per day: 14.34217938
mean anomaly at epoch: 278.4043°
orbit number at epoch: 1717

The dashed part of the orbit path shows where the satellite is in the earth's shadow,  

DLR